This is the latest recevied weather packets stored in our database for station/object KC4KQE. If no packets are shown the sender has not sent any weather packets the latest 10 day(s).
| Time | Temp. | Humidity | Pressure | Rain* | Wind** | Luminosity | Snow |
|---|---|---|---|---|---|---|---|
| 1777903756 | 22.22° C | 41% | 1012.7 hPa | 0 mm | - | 93 W/m² | - |
| 1777903456 | 22.22° C | 41% | 1012.7 hPa | 0 mm | - | 77 W/m² | - |
| 1777903156 | 22.22° C | 41% | 1012.8 hPa | 0 mm | - | 63 W/m² | - |
| 1777902857 | 22.22° C | 41% | 1013 hPa | 0 mm | - | 56 W/m² | - |
| 1777902556 | 22.22° C | 41% | 1012.9 hPa | 0 mm | - | 54 W/m² | - |
| 1777902256 | 22.22° C | 41% | 1012.9 hPa | 0 mm | - | 111 W/m² | - |
| 1777901956 | 21.67° C | 41% | 1012.8 hPa | 0 mm | - | 72 W/m² | - |
| 1777901656 | 21.67° C | 41% | 1012.7 hPa | 0 mm | - | 83 W/m² | - |
| 1777901356 | 21.67° C | 42% | 1012.6 hPa | 0 mm | - | 76 W/m² | - |
| 1777901057 | 21.67° C | 42% | 1012.5 hPa | 0 mm | - | 54 W/m² | - |
| 1777900756 | 21.67° C | 42% | 1012.3 hPa | 0 mm | - | 46 W/m² | - |
| 1777900456 | 21.67° C | 42% | 1012.2 hPa | 0 mm | - | 33 W/m² | - |
| 1777900156 | 21.67° C | 41% | 1012.1 hPa | 0 mm | - | 28 W/m² | - |
| 1777899857 | 21.67° C | 41% | 1012.1 hPa | 0 mm | - | 25 W/m² | - |
| 1777899556 | 21.67° C | 41% | 1012.1 hPa | 0 mm | - | 19 W/m² | - |
| 1777899256 | 21.11° C | 42% | 1012 hPa | 0 mm | - | 16 W/m² | - |
| 1777898956 | 21.11° C | 41% | 1012 hPa | 0 mm | - | 7 W/m² | - |
| 1777898656 | 21.11° C | 41% | 1011.9 hPa | 0 mm | - | 0 W/m² | - |
| 1777898356 | 21.11° C | 42% | 1012 hPa | 0 mm | - | 0 W/m² | - |
| 1777898056 | 21.67° C | 42% | 1012 hPa | 0 mm | - | 0 W/m² | - |
| 1777897756 | 21.67° C | 42% | 1011.9 hPa | 0 mm | - | 0 W/m² | - |
| 1777897456 | 21.67° C | 41% | 1011.7 hPa | 0 mm | - | 0 W/m² | - |
| 1777897156 | 21.67° C | 42% | 1011.8 hPa | 0 mm | - | 0 W/m² | - |
| 1777896856 | 21.67° C | 41% | 1011.8 hPa | 0 mm | - | 0 W/m² | - |
| 1777896556 | 21.67° C | 42% | 1011.9 hPa | 0 mm | - | 0 W/m² | - |
* Rain latest hour (hover to see other rain measurements)
** Current wind speed in m/s (hover to see current wind gust speed)